Weather History for K1H2 - June, 2014

Change the Weather History Date:

Saturday, June 7, 2014

  Actual Average (KMTO) Record (KMTO)
Temperature  
Mean Temperature 70 °F 70 °F  
Max Temperature 81 °F 80 °F 94 °F (1952)
Min Temperature 59 °F 59 °F 46 °F (1977)
Degree Days  
Heating Degree Days 0 1  
Month to date heating degree days 9  
Since 1 June heating degree days 9  
Since 1 July heating degree days 5399  
Cooling Degree Days 4 6  
Month to date cooling degree days 35  
Year to date cooling degree days 123  
Since 1 June cooling degree days 35  
Growing Degree Days 20 (Base 50)    
Moisture  
Dew Point 60 °F    
Average Humidity 69    
Maximum Humidity 89    
Minimum Humidity 41    
Precipitation  
Precipitation 0.27 in 0.17 in 1.11 in (1982)
Month to date precipitation 1.21  
Year to date precipitation 15.56  
Sea Level Pressure  
Sea Level Pressure 29.88 in    
Wind  
Wind Speed 6 mph (SE)    
Max Wind Speed 18 mph    
Max Gust Speed 25 mph    
Visibility 9 miles    
Events Rain , Thunderstorm    
T = Trace of Precipitation, MM = Missing Value Source: NWS Daily Summary

Daily Weather History Graph

Daily Weather History Graph

Search for Another Location

Airport or City:

Trip Planner

Search our weather history database for the weather conditions in past years. The results will help you decide how hot, cold, wet, or windy it might be!

Date:

Astronomy

Jun. 07, 2014 Rise Set
Actual Time 5:28 AM CDT 8:17 PM CDT
Civil Twilight 4:56 AM CDT 8:49 PM CDT
Nautical Twilight 4:16 AM CDT 9:29 PM CDT
Astronomical Twilight 3:30 AM CDT 10:15 PM CDT
Moon 2:37 PM CDT (6/7) 1:47 AM CDT (6/7)
Length of Visible Light 15h 53m
Length of Day
14h 49m
Waxing Gibbous, 68% of the Moon is Illuminated
Jun 7
Waxing Gibbous
Jun 12
Full
Jun 19
Last Quarter
Jun 27
New
Jul 5
First Quarter

Hourly Weather History & Observations

Time (CDT) Temp. Heat Index Dew Point Humidity Pressure Visibility Wind Dir Wind Speed Gust Speed Precip Events Conditions
12:15 AM 65.3 °F - 58.3 °F 78% 29.97 in 10.0 mi East 4.6 mph - N/A   Clear
12:35 AM 66.7 °F - 56.7 °F 70% 29.96 in 10.0 mi East 5.8 mph - N/A   Clear
12:55 AM 67.8 °F - 55.8 °F 65% 29.95 in 10.0 mi ESE 4.6 mph - N/A   Clear
1:15 AM 66.4 °F - 56.1 °F 69% 29.95 in 10.0 mi East 3.5 mph - N/A   Clear
1:35 AM 66.6 °F - 55.6 °F 68% 29.95 in 10.0 mi East 3.5 mph - N/A   Clear
1:55 AM 65.3 °F - 55.8 °F 71% 29.96 in 10.0 mi Calm Calm - N/A   Clear
2:15 AM 64.0 °F - 55.9 °F 75% 29.96 in 10.0 mi Calm Calm - N/A   Clear
2:35 AM 63.3 °F - 56.3 °F 78% 29.96 in 10.0 mi Calm Calm - N/A   Clear
2:55 AM 63.0 °F - 57.2 °F 81% 29.98 in 10.0 mi Calm Calm - N/A   Clear
3:15 AM 62.2 °F - 57.4 °F 84% 29.98 in 10.0 mi Calm Calm - N/A   Clear
3:35 AM 61.3 °F - 57.0 °F 86% 29.99 in 10.0 mi Calm Calm - N/A   Clear
3:55 AM 61.3 °F - 57.2 °F 86% 29.98 in 10.0 mi Calm Calm - N/A   Clear
4:15 AM 60.8 °F - 57.0 °F 87% 29.99 in 10.0 mi Calm Calm - N/A   Clear
4:35 AM 60.8 °F - 57.0 °F 87% 29.99 in 10.0 mi Calm Calm - N/A   Clear
4:55 AM 60.3 °F - 56.7 °F 88% 29.99 in 10.0 mi Calm Calm - N/A   Clear
5:15 AM 60.1 °F - 56.7 °F 88% 30.00 in 7.0 mi Calm Calm - N/A   Clear
5:35 AM 59.9 °F - 56.5 °F 88% 30.01 in 7.0 mi Calm Calm - N/A   Clear
5:55 AM 59.9 °F - 56.7 °F 89% 30.01 in 7.0 mi Calm Calm - N/A   Clear
6:15 AM 61.3 °F - 57.9 °F 89% 30.00 in 7.0 mi Calm Calm - N/A   Clear
6:55 AM 66.6 °F - 56.5 °F 70% 30.00 in 10.0 mi East 4.6 mph - N/A   Clear
7:15 AM 67.5 °F - 56.1 °F 67% 30.00 in 10.0 mi East 5.8 mph - N/A   Clear
7:55 AM 71.4 °F - 55.6 °F 57% 30.00 in 10.0 mi SE 6.9 mph - N/A   Clear
8:15 AM 72.3 °F - 54.9 °F 54% 30.00 in 10.0 mi SE 6.9 mph - N/A   Clear
8:35 AM 73.6 °F - 54.9 °F 52% 30.00 in 10.0 mi SSE 6.9 mph - N/A   Clear
8:55 AM 75.2 °F - 55.4 °F 50% 30.00 in 10.0 mi SSE 8.1 mph - N/A   Clear
9:15 AM 75.7 °F - 54.5 °F 48% 29.99 in 10.0 mi SE 9.2 mph - N/A   Clear
9:35 AM 77.4 °F - 53.8 °F 44% 29.96 in 10.0 mi SE 11.5 mph - N/A   Clear
9:55 AM 78.1 °F - 54.5 °F 44% 29.95 in 10.0 mi SE 12.7 mph - N/A   Clear
10:15 AM 79.2 °F - 54.0 °F 42% 29.93 in 10.0 mi ESE 15.0 mph - N/A   Clear
10:35 AM 78.8 °F - 53.6 °F 42% 29.91 in 10.0 mi SE 12.7 mph - N/A   Clear
10:55 AM 79.7 °F - 55.6 °F 43% 29.94 in 10.0 mi SE 10.4 mph 16.1 mph N/A   Clear
11:15 AM 80.1 °F 80.1 °F 54.7 °F 41% 29.94 in 10.0 mi SE 13.8 mph 19.6 mph N/A   Clear
11:35 AM 79.3 °F - 54.9 °F 43% 29.95 in 10.0 mi SE 15.0 mph 18.4 mph N/A   Clear
12:15 PM 79.7 °F - 56.3 °F 44% 29.93 in 10.0 mi SSE 11.5 mph 16.1 mph N/A   Scattered Clouds
12:35 PM 79.5 °F - 56.1 °F 44% 29.92 in 10.0 mi SSE 12.7 mph 17.3 mph N/A   Scattered Clouds
12:55 PM 79.2 °F - 56.8 °F 46% 29.91 in 10.0 mi SSE 11.5 mph - N/A   Clear
1:15 PM 80.8 °F 81.0 °F 57.4 °F 45% 29.90 in 10.0 mi SE 11.5 mph 19.6 mph N/A   Clear
1:35 PM 79.7 °F - 57.7 °F 47% 29.89 in 10.0 mi SE 11.5 mph - N/A   Clear
1:55 PM 79.3 °F - 57.7 °F 47% 29.89 in 10.0 mi SSE 13.8 mph - N/A   Scattered Clouds
2:15 PM 78.3 °F - 57.9 °F 49% 29.88 in 10.0 mi SE 11.5 mph 16.1 mph N/A   Mostly Cloudy
2:35 PM 78.1 °F - 59.0 °F 52% 29.88 in 10.0 mi SSE 9.2 mph - N/A Thunderstorm Overcast
2:55 PM 76.5 °F - 59.9 °F 56% 29.87 in 10.0 mi SSE 10.4 mph - N/A Rain Light Rain
3:15 PM 73.4 °F - 61.9 °F 67% 29.87 in 5.0 mi SSE 4.6 mph - 0.02 in Rain , Thunderstorm Heavy Thunderstorms and Rain
3:35 PM 73.2 °F - 64.6 °F 74% 29.84 in 10.0 mi ESE 10.4 mph - 0.03 in Rain Light Rain
3:55 PM 75.2 °F - 65.3 °F 71% 29.83 in 10.0 mi SE 11.5 mph - 0.03 in   Scattered Clouds
4:15 PM 76.8 °F - 64.4 °F 65% 29.81 in 10.0 mi SE 16.1 mph 19.6 mph N/A   Scattered Clouds
4:35 PM 77.9 °F - 63.7 °F 61% 29.80 in 10.0 mi SE 18.4 mph 25.3 mph N/A   Clear
4:55 PM 77.0 °F - 63.0 °F 62% 29.80 in 10.0 mi SE 11.5 mph 21.9 mph N/A   Scattered Clouds
5:15 PM 76.8 °F - 63.0 °F 62% 29.79 in 10.0 mi SE 11.5 mph - N/A   Scattered Clouds
5:35 PM 76.8 °F - 63.1 °F 63% 29.78 in 10.0 mi SE 10.4 mph - N/A   Clear
5:55 PM 76.6 °F - 63.3 °F 63% 29.78 in 10.0 mi SE 9.2 mph - N/A Rain Light Rain
6:15 PM 75.7 °F - 64.0 °F 67% 29.77 in 10.0 mi SE 9.2 mph - N/A Rain Light Rain
6:35 PM 74.3 °F - 65.3 °F 73% 29.74 in 10.0 mi ESE 9.2 mph - N/A Rain Light Rain
6:55 PM 74.5 °F - 65.3 °F 73% 29.74 in 10.0 mi ESE 10.4 mph - N/A   Overcast
7:15 PM 73.8 °F - 66.4 °F 78% 29.74 in 5.0 mi SSE 9.2 mph - 0.02 in Rain Heavy Rain
7:35 PM 71.8 °F - 67.1 °F 85% 29.74 in 4.0 mi SSE 11.5 mph 20.7 mph 0.10 in Rain Heavy Rain
7:55 PM 71.1 °F - 67.3 °F 88% 29.73 in 5.0 mi SE 10.4 mph 16.1 mph 0.16 in Rain Light Rain
8:15 PM 71.1 °F - 67.1 °F 87% 29.74 in 7.0 mi SSE 6.9 mph - 0.01 in Rain Rain
8:35 PM 69.8 °F - 66.2 °F 88% 29.74 in 5.0 mi South 8.1 mph - N/A Rain Heavy Rain
8:55 PM 70.7 °F - 66.4 °F 86% 29.73 in 10.0 mi SSE 10.4 mph - 0.08 in   Overcast
9:15 PM 70.7 °F - 66.2 °F 86% 29.72 in 10.0 mi SSE 10.4 mph - N/A   Overcast
9:35 PM 70.7 °F - 66.4 °F 86% 29.72 in 10.0 mi South 9.2 mph - N/A   Overcast
9:55 PM 70.7 °F - 66.7 °F 87% 29.72 in 10.0 mi South 10.4 mph - N/A   Overcast
10:15 PM 70.9 °F - 66.7 °F 87% 29.73 in 10.0 mi SW 11.5 mph 17.3 mph N/A   Overcast
10:35 PM 71.1 °F - 66.4 °F 85% 29.72 in 10.0 mi SW 11.5 mph - N/A   Overcast
10:55 PM 71.6 °F - 66.2 °F 83% 29.72 in 10.0 mi SSW 6.9 mph - N/A   Overcast
11:15 PM 70.2 °F - 65.8 °F 86% 29.71 in 10.0 mi SSW 9.2 mph - N/A   Mostly Cloudy
11:35 PM 69.8 °F - 65.7 °F 87% 29.71 in 10.0 mi SSW 9.2 mph - N/A   Overcast
11:55 PM 70.0 °F - 65.7 °F 86% 29.71 in 10.0 mi SW 6.9 mph - N/A   Overcast